Tracking 19574 objects as of 16-Feb-2019
HD Live streaming from Space Station
objects crossing your sky now

SOLRAD 1 (GREB)

Track SOLRAD 1 (GREB) now!
10-day predictions
SOLRAD 1 (GREB) is classified as:


NORAD ID: 46
Int'l Code: 1960-007B
Perigee: 589.7 km
Apogee: 881.1 km
Inclination: 66.7 °
Period: 99.4 minutes
Semi major axis: 7106 km
RCS: 0.3563 m2 (medium)
Launch date: June 22, 1960
Source: United States (US)
Launch site: AIR FORCE EASTERN TEST RANGE (AFETR)
aabbcc
Your satellite tracking list
Your tracking list is empty




NASA's NSSDC Master Catalog

Two Line Element Set (TLE):
1    46U 60007B   19046.83282489 -.00000003  00000-0  22614-4 0  9990
2    46  66.6899 283.9839 0205064 136.0837 225.6778 14.49203991 68444
Source of the keplerian elements: AFSPC